Content
SEND FEEDBACK

Daily
Averages
Monthly
Summary
United States of America

SEA-TAC, WASHINGTON


Home > North America > United States > Washington
Elevation: 450 feet     Latitude: 47 27N     Longitude: 122 18W

WEATHER
 
SELECT A DAY
Number of Records: 207,301;   Date Range: 1/1/95 - 8/30/14
 
SHARE

PRINT THIS DATA

[ ← Previous Day ]
WEATHER ALMANAC - JANUARY 31, 2013
[ Next Day → ]
[ °C ]   °F
Weather ElementAverageHighLow
Temperature46.9 °F48.9 °F (1:53 pm)46 °F (1:53 am)
Dewpoint44.1 °F45 °F (1:53 am)42.8 °F (6:03 pm)
Humidity90.2 %96 % (1:53 am)80 % (1:53 pm)
Barometer30.36 in30.42 in (2:53 am)30.31 in (7:21 pm)
Wind Speed8.8 mph17.3 mph (1:53 pm)
Wind Gust21.9 mph (1:53 pm)
Weather ElementAverage
Visibility6.8 mi
Wind DirectionSSW (194.4 °)

Weather ElementTotal
Precipitation0.13 in
Heating Degree Days17.6 (Base 65)
Averaged from 32 records on January 31, 2013
WEATHER CONDITIONS BREAKOUT
WIND DIRECTION BREAKOUT
WEATHER BY HOUR - JANUARY 31, 2013
[ °C ]   °F
Local TimeTemperatureDewpointHumidityBarometerVisibilityWind DirectionWind SpeedGust SpeedPrecipitationEventsConditions
1:53 AM46.0 °F45.0 °F96 %30.41 in0.2 miSSW (200°)6.9 mph0.01 inLight Drizzle
2:53 AM46.0 °F45.0 °F96 %30.42 in0.2 miSSW (210°)5.8 mph0.00 inLight Drizzle
3:53 AM46.0 °F44.1 °F93 %30.42 in2.0 miSSW (210°)10.4 mph0.02 inRainLight Rain
4:53 AM46.0 °F44.1 °F93 %30.41 in2.0 miSSE (160°)5.8 mph0.01 inOvercast
5:16 AM46.4 °F44.6 °F93 %30.38 in7.0 miSSW (200°)6.9 mphOvercast
5:53 AM46.0 °F44.1 °F93 %30.41 in10.0 miSE (130°)8.1 mphOvercast
6:40 AM46.4 °F44.6 °F93 %30.38 in10.0 miSouth (180°)5.8 mphOvercast
6:53 AM46.0 °F44.1 °F93 %30.40 in10.0 miSouth (180°)11.5 mphOvercast
7:42 AM46.4 °F44.6 °F93 %30.38 in10.0 miSSE (160°)5.8 mphOvercast
7:53 AM46.0 °F44.1 °F93 %30.40 in10.0 miSSE (160°)6.9 mphOvercast
8:53 AM46.0 °F44.1 °F93 %30.40 in10.0 miSouth (180°)8.1 mphOvercast
9:14 AM46.4 °F44.6 °F93 %30.37 in10.0 miSouth (190°)10.4 mphOvercast
9:53 AM48.0 °F43.0 °F83 %30.39 in10.0 miSouth (190°)10.4 mphOvercast
10:53 AM46.0 °F43.0 °F89 %30.40 in9.0 miSouth (190°)12.7 mph0.03 inRainLight Rain
11:53 AM46.9 °F44.1 °F90 %30.38 in10.0 miSouth (190°)8.1 mph0.01 inMostly Cloudy
12:53 PM48.0 °F44.1 °F86 %30.36 in10.0 miSouth (180°)11.5 mphMostly Cloudy
1:09 PM48.2 °F44.6 °F87 %30.33 in10.0 miSouth (180°)11.5 mphMostly Cloudy
1:53 PM48.9 °F43.0 °F80 %30.35 in10.0 miSouth (190°)17.3 mph21.9 mphMostly Cloudy
2:53 PM48.9 °F43.0 °F80 %30.33 in10.0 miSSW (200°)13.8 mphOvercast
3:53 PM48.9 °F44.1 °F83 %30.33 in10.0 miSSW (200°)11.5 mphOvercast
4:53 PM48.0 °F43.0 °F83 %30.33 in10.0 miSSW (210°)9.2 mphOvercast
5:53 PM48.0 °F43.0 °F83 %30.34 in10.0 miSSW (200°)9.2 mphOvercast
6:03 PM48.2 °F42.8 °F82 %30.32 in10.0 miSSW (200°)9.2 mphOvercast
6:53 PM46.9 °F44.1 °F90 %30.34 in7.0 miSSW (210°)8.1 mph0.00 inRainLight Rain
7:21 PM46.4 °F44.6 °F93 %30.31 in6.0 miSW (220°)8.1 mph0.00 inRainLight Rain
7:53 PM46.9 °F44.1 °F90 %30.34 in5.0 miSW (230°)6.9 mph0.00 inRainLight Rain
8:53 PM46.9 °F45.0 °F93 %30.34 in4.0 miSW (220°)5.8 mph0.02 inRainLight Rain
9:02 PM46.4 °F44.6 °F93 %30.32 in2.5 miSSW (210°)5.8 mph0.00 inRainLight Rain
9:24 PM46.4 °F44.6 °F93 %30.32 in1.5 miSSW (210°)8.1 mph0.01 inOvercast
9:53 PM46.0 °F45.0 °F96 %30.34 in0.8 miSSW (210°)5.8 mph0.01 inLight Drizzle
10:53 PM46.0 °F45.0 °F96 %30.35 in0.8 miSSW (200°)8.1 mph0.01 inLight Drizzle
11:53 PM46.0 °F44.1 °F93 %30.36 in0.8 miSW (220°)9.2 mph0.00 inOvercast
Hourly data recorded from KSEA, located miles away from Sea-Tac, Washington







STORIES FROM OUR PARTNERS